Historyczne dane pomiarowe

Dodano dane terminowe – wersja testowa.

Dane z okresu 1951-2019

Wersja bazy: 1.34 [2019-03-16, lista zmian], aktualizacja planowana na 2019-04-15

Dane meteo z obszaru Polski uzyskane na podstawie danych udostępnionych przez Instytut Meteorologii i Gospodarki Wodnej – Państwowy Instytut Badawczy.

 

Wybierz Datę:    

       

TemperaturaWilgotnośćWiatrCiśnienieOpadyŚniegCzas trwania zjawisk
 Stacja t tx tn tng RH VA  wxwx mslp ppp RRR   cm mm wxwxwxwxwxwxwx
1961-08-14 3.8 7.0 -1.1- 83.3- 3.7 2.0---- 0.0------------
1961-08-13 2.0 9.9 0.1-100.0- 8.0 6.0---- 20.0------------
1961-08-12 11.0 14.9 8.5- 86.3- 7.7 5.0---- 18.5------------
1961-08-11 15.7 18.8 13.7- 46.0- 1.0 11.7---- 0.2------------
1961-08-10 15.3 18.5 13.1- 77.0- 2.7 8.0---- 0.0------------
1961-08-09 14.4 17.4 11.9- 78.3- 5.7 3.7---- 0.0------------
1961-08-08 12.6 15.4 9.7- 89.3- 4.7 5.7---- 0.0------------
1961-08-07 12.6 17.0 9.4- 75.8- 3.3 5.7---- 0.0------------
1961-08-06 12.7 16.8 8.5- 69.0- 1.3 6.0---- 0.0------------
1961-08-05 8.3 11.1 3.8- 82.8- 4.7 5.0---- 0.0------------
1961-08-04 5.0 6.9 2.0- 98.5- 6.0 2.3---- 0.0------------
1961-08-03 6.6 10.0 4.9- 97.8- 7.7 1.0---- 7.5------------
1961-08-02 9.9 13.5 4.1- 73.0- 2.3 2.3---- 0.0------------
1961-08-01 4.7 8.3 1.1- 83.3- 3.7 6.3---- 0.0-- 5---------
1961-07-31 1.9 3.0 -0.2- 99.0- 8.0 4.3---- 0.5-- 10---------
1961-07-30 0.0 0.9 -1.1-100.0- 8.0 8.3---- 42.8-- 5---------
1961-07-29 2.9 10.8 0.2-100.0- 8.0 5.0---- 40.1------------
1961-07-28 11.0 13.4 8.7- 73.8- 6.3 9.7---- 3.8------------
1961-07-27 10.6 14.9 6.7- 65.8- 3.3 7.3---- 0.2------------
1961-07-26 5.9 9.1 -0.9- 72.3- 3.7 3.7---- 0.0------------
1961-07-25 2.9 4.7 1.3- 97.5- 6.3 3.7---- 0.0------------
1961-07-24 3.0 5.1 0.6-100.0- 8.0 1.7---- 0.2------------
1961-07-23 5.0 7.4 2.7- 96.0- 5.7 2.7---- 7.0------------
1961-07-22 3.6 6.3 1.8- 98.3- 7.7 4.7---- 0.6------------
1961-07-21 3.3 6.1 1.4- 98.0- 7.0 5.7---- 1.2------------
1961-07-20 3.8 5.1 2.0- 99.0- 7.7 4.3---- 11.7------------
1961-07-19 3.8 5.4 1.3- 92.8- 6.0 4.0---- 5.8------------
1961-07-18 3.6 6.7 0.2- 94.0- 6.7 2.7---- 2.2------------
1961-07-17 4.3 8.3 2.8- 77.5- 4.7 4.0---- 0.2------------
1961-07-16 6.5 11.3 5.1- 94.5- 6.0 6.3---- 3.6------------
1961-07-15 7.4 10.2 2.9- 89.8- 6.3 6.3---- 6.9------------
1961-07-14 2.9 5.9 0.4- 74.0- 4.7 7.3---- 0.1------------
1961-07-13 7.4 13.0 4.5- 98.3- 7.0 11.3---- 10.3------------
1961-07-12 9.2 13.7 6.0- 93.3- 6.7 7.0---- 0.0------------
1961-07-11 5.5 9.0 -1.0- 75.5- 3.3 4.7---- 0.0------------
1961-07-10 3.0 5.9 0.6- 95.8- 7.7 6.0---- 2.6------------
1961-07-09 3.5 8.4 1.6- 86.5- 6.3 6.0---- 0.4------------
1961-07-08 3.7 6.4 0.8- 91.3- 5.7 1.0---- 0.0------------
1961-07-07 2.0 5.1 -1.5- 89.3- 6.0 1.0---- 0.0------------
1961-07-06 0.6 3.0 -1.3- 80.8- 3.7 3.3---- 0.0------------
1961-07-05 2.0 11.9 0.6- 96.0- 7.0 3.3---- 1.4------------
1961-07-04 13.0 17.4 10.7- 59.0- 4.7 4.7---- 4.0------------
1961-07-03 13.5 18.5 10.7- 61.0- 1.0 2.3---- 0.0------------
1961-07-02 12.1 16.5 7.1- 61.8- 1.0 1.7---- 0.0------------
1961-07-01 10.2 15.1 6.0- 75.0- 2.0 3.0---- 0.0------------
1961-06-30 7.4 12.1 2.6- 81.0- 2.0 3.0---- 0.0------------
1961-06-29 3.1 7.5 -0.6- 98.3- 7.3 5.0---- 0.0------------
1961-06-28 2.9 12.5 0.1-100.0- 8.0 5.3---- 1.1------------
1961-06-27 13.3 16.7 10.7- 79.8- 3.7 9.0---- 14.9------------
1961-06-26 12.6 16.3 10.1- 68.8- 4.3 8.0---- 0.0------------
1961-06-25 12.0 17.1 7.7- 67.0- 2.0 5.0---- 0.0------------
1961-06-24 8.8 13.6 5.6- 71.0- 5.0 3.0---- 0.0------------
1961-06-23 7.0 9.2 6.0- 92.0- 6.0 5.3---- 0.7------------
1961-06-22 8.6 13.0 4.1- 81.0- 5.0 5.7---- 13.6------------
1961-06-21 7.1 12.4 2.0- 86.5- 4.3 1.7---- 0.0------------
1961-06-20 4.1 9.4 3.0- 93.0- 7.3 4.3---- 0.0------------
1961-06-19 10.9 15.6 7.9- 86.5- 4.3 2.7---- 2.4------------
1961-06-18 8.9 14.4 4.5- 74.3- 4.0 0.7---- 0.0------------
1961-06-17 6.0 10.1 1.9- 81.5- 4.3 1.3---- 0.0------------
1961-06-16 3.7 8.6 -0.6- 70.5- 1.7 2.0---- 0.0------------
371.1 ms

 

Źródłem pochodzenia danych jest Instytut Meteorologii i Gospodarki Wodnej – Państwowy Instytut Badawczy. Dane Instytutu Meteorologii i Gospodarki Wodnej – Państwowego Instytutu Badawczego zostały przetworzone.

Dane źródłowe można odnaleźć na stronie https://dane.imgw.pl